Zurück zum Katalog

THORAD AGENA D DEB

AktivPO
NORAD 4653·DEBRIS·🇺🇸 United States

Gestartet Apr 8, 1970 von Vandenberg Space Force Base

Loading…

Nächste Überflüge (nächste 24 Stunden)

TLE

AktuellSource: Space-Track

Epoche: Sep 14, 2026, 09:49 UTC

1 04653U 70025AM  26257.40903732  .00009344  00000-0  15842-2 0  9994
2 04653  99.9968 232.6601 0012917  21.4230 338.7507 14.69484544880303

Verfolge THORAD AGENA D DEB in Echtzeit mit AllMySat

Download on the App Store